SCP
0 -0 0 -0 -0 -0 0 0 0 0 0 0 -0 -0 -0 0 0 0 -0 0 -0 0 0 0 0 0 -0 0 0 0 0 0 0 0 0 0 0 0 0 0 0 0 0
-0 -0 0 -0 -0 -0 -0 0 0 0 0 0 -0 -0 -0 0 -0 0 0 0 0 -0 0 0 0 0 0 0 0 0 -0 0 -0 -0 0 0 0 0 0 0 0 0 0
-0 -0 -0 -0 -0 -0 -0 0 0 0 0 -0 -0 0 0 0 -0 0 0 -0 -0 -0 0 0 -0 -0 0 0 0 0 0 0 0 -0 0 0 0 0 0 0 0 0 0
-0 -0 -0 -0 -0 -0 -0 0 0 0 0 -0 -0 -0 -0 -0 -0 0 0 -0 0 0 0 0 0 -0 0 0 0 -0 -0 -0 0 -0 -0 -0 0 0 0 0 0 0 0
-0 -0 -0 -0 -0 -0 0 0 0 0 0 -0 0 -0 -0 -0 -0 0 -0 0 0 0 0 0 0 0 0 0 0 -0 -0 -0 -0 0 -0 -0 0 0 0 0 0 0 0
-0 -0 -0 -0 -0 -0 0 0 0 0 0 0 -0 -0 -0 -0 0 -0 0 -0 0 0 -0 -0 0 0 0 -0 -0 -0 0 -0 0 0 -0 0 0 0 0 0 -0 0 0
-0 -0 -0 -0 -0 -0 -0 0 0 0 0 0 -0 0 -0 -0 -0 0 -0 -0 0 0 -0 -0 -0 -0 0 -0 -0 -0 -0 -0 -0 -0 -0 0 -0 0 0 0 0 -0 0
0 0 -0 -0 -0 -0 -0 -0 0 0 0 0 0 0 0 -0 -0 0 -0 0 -0 0 -0 -0 -0 -0 -0 -0 -0 -0 -0 -0 -0 0 -0 -0 -0 0 -0 0 -0 0 0
0 0 -0 -0 -0 -0 -0 -1 0 1 0 0 0 0 0 0 0 0 0 0 -0 0 -0 -0 0 -0 -0 -0 -0 -0 -0 -0 -0 -0 -0 -0 -0 -0 -0 -0 -0 -0 -0
0 0 0 0 0 -0 -0 -0 -0 1 1 1 1 1 0 0 1 -0 1 0 0 -0 0 0 -0 -0 -0 -0 -0 -0 -0 -0 -0 -0 -0 -0 -0 -0 -0 0 0 0 0
0 0 0 0 0 0 -0 -0 -0 0 1 1 1 1 1 0 0 1 0 1 -0 1 1 1 1 0 0 0 -0 0 0 -0 -0 0 0 -0 -0 -0 -0 0 0 0 0
1 0 0 -0 0 0 -0 -0 -0 -0 0 1 2 1 1 1 0 0 1 1 1 1 1 1 1 1 0 0 0 -0 0 -0 -0 0 0 0 -0 0 -0 -0 -0 -0 -0
0 -0 -0 -0 -0 0 0 -0 -0 -0 0 0 1 1 1 1 0 0 0 1 1 1 1 1 1 1 1 0 0 0 -0 0 -0 0 0 0 0 -0 -0 -0 -0 -0 -0
0 0 0 0 0 1 0 0 -0 -0 -0 -0 0 1 1 1 1 1 0 1 1 1 1 1 1 1 1 0 0 0 0 0 -0 0 0 -0 -0 0 0 -0 -0 -0 -0
0 0 0 1 2 2 1 1 1 0 0 -0 -1 -0 1 1 1 1 1 1 1 1 1 1 1 1 1 0 0 0 0 0 0 0 0 0 -0 -0 -0 -0 -0 -0 -0
0 0 1 1 4 1 3 2 1 1 0 -0 -0 0 1 1 1 1 1 1 1 1 1 1 1 1 1 0 0 0 0 0 0 0 -0 -0 0 0 0 -0 -0 -0 -0
1 1 1 1 1 0 2 3 3 2 1 0 0 0 0 1 1 1 1 1 1 2 1 1 1 1 1 0 0 0 0 0 0 0 0 0 -0 0 0 0 0 0 0
1 2 1 1 1 -0 0 -0 2 3 2 1 1 0 0 1 1 1 1 1 2 1 2 1 1 1 1 1 0 0 0 0 0 0 0 0 0 -0 0 0 0 0 0
0 1 1 1 3 2 1 3 3 2 2 1 1 0 0 0 1 1 1 1 2 2 1 2 1 1 1 1 1 0 0 0 0 0 0 0 0 0 0 -0 0 0 0
0 0 1 1 2 2 2 2 3 2 1 1 1 1 1 0 1 1 1 2 2 2 2 1 1 2 2 2 0 0 1 0 0 1 0 0 0 0 0 0 0 0 0
0 0 0 1 2 4 2 1 2 2 2 2 2 3 2 1 1 1 2 2 2 2 2 1 1 2 2 2 1 0 1 1 1 1 1 0 0 -0 -0 0 0 0 1
-0 0 0 0 2 3 4 2 2 1 3 3 4 3 2 2 1 1 1 2 2 1 2 2 2 2 2 2 1 0 0 1 1 1 1 0 0 -0 -0 -0 0 0 0
0 0 0 0 0 1 4 6 4 3 2 6 5 5 4 3 3 2 1 2 2 2 2 2 2 2 2 3 1 0 0 0 1 1 1 0 0 0 -0 -0 0 -0 -0
0 0 0 0 0 0 0 2 3 6 4 3 6 7 6 4 4 3 3 2 2 3 3 3 3 2 3 3 3 0 0 0 0 0 1 0 0 0 1 1 0 0 2
0 0 0 0 0 0 0 0 0 3 6 7 9 8 8 6 5 3 3 3 1 2 4 5 3 5 3 2 2 2 2 1 1 1 1 1 1 1 1 2 4 3 3
0 0 0 0 0 0 0 0 0 0 7 16 14 10 8 7 6 5 4 0 2 1 2 2 3 2 1 0 0 0 1 1 1 1 2 2 2 2 2 2 3 3 4
Wind_Speed_500mb
62 66 63 61 61 61 56 53 49 49 47 41 38 34 29 25 26 31 20 13 6 8 15 15 18 15 17 17 14 11 14 11 18 13 12 6 14 11 8 7 7 9 6
72 71 68 66 63 64 60 63 56 52 50 38 40 34 25 26 35 27 17 11 10 6 11 13 14 7 13 19 9 21 18 9 13 6 11 7 8 18 10 10 2 8 5
79 77 75 73 69 69 65 68 65 55 53 46 46 39 36 30 19 36 25 16 17 10 17 12 17 20 13 10 18 22 5 6 5 5 9 9 7 12 7 4 11 4 8
78 78 76 74 75 75 71 65 71 61 59 53 48 43 37 31 36 34 23 18 21 14 12 10 20 19 20 16 8 15 15 16 13 5 2 7 2 3 5 10 13 11 9
81 83 85 83 79 76 78 71 71 70 61 66 52 51 44 42 34 30 31 36 24 22 20 17 13 18 15 12 17 16 17 9 8 10 8 3 1 2 7 2 18 6 4
82 87 86 83 78 76 79 74 74 77 74 70 62 58 58 43 31 31 37 36 23 26 27 25 15 14 20 19 19 17 22 22 18 7 22 8 12 10 11 5 11 11 7
80 84 87 86 86 84 84 83 81 77 80 76 75 67 61 55 49 39 35 29 35 25 28 33 25 17 17 19 16 14 22 29 25 19 20 9 8 9 8 3 12 2 7
79 81 91 93 96 92 93 90 90 84 82 84 80 78 70 64 58 38 47 33 32 42 33 35 24 20 20 19 17 15 19 16 25 31 25 12 6 1 4 6 10 11 11
17 79 87 91 92 94 96 97 95 90 85 88 87 86 83 71 68 56 46 48 44 28 34 34 25 26 26 19 20 15 15 22 22 19 32 25 19 12 11 13 14 16 24
73 83 81 88 89 96 91 92 89 94 89 83 90 88 89 84 74 66 56 51 49 43 31 35 35 29 32 30 29 19 18 22 17 18 18 18 27 14 15 22 19 18 21
58 69 47 80 89 87 89 91 92 87 91 89 86 92 90 88 83 74 71 60 56 52 56 36 38 38 34 38 37 30 32 32 24 29 22 28 20 30 21 20 19 21 23
83 66 71 76 87 88 90 91 93 93 92 92 86 89 90 88 88 88 80 74 67 60 57 59 43 43 42 40 43 40 42 31 36 27 40 31 29 26 34 32 30 23 26
101 88 88 93 97 91 90 90 93 95 87 86 87 85 88 88 86 89 91 82 80 74 71 64 61 60 50 43 43 43 38 44 40 34 31 34 37 37 37 27 30 33 28
92 79 88 74 98 99 95 90 89 88 88 85 88 91 93 94 93 87 85 88 82 84 79 73 67 61 56 48 45 47 46 41 51 48 45 46 45 43 42 40 40 43 43
30 52 51 47 87 91 95 92 84 86 87 88 89 92 93 92 86 89 88 82 97 89 82 76 71 67 62 57 54 51 52 48 47 49 52 51 50 50 49 48 44 38 36
7 17 15 54 59 52 87 89 90 85 87 88 92 84 85 85 89 88 86 86 87 91 88 83 76 74 71 64 53 50 52 55 53 50 52 54 49 47 45 47 53 52 51
18 20 23 23 28 54 33 84 87 86 84 90 86 86 85 91 92 89 88 87 88 88 89 84 80 80 78 71 58 55 55 53 55 55 53 51 51 49 47 44 42 44 45
43 28 28 34 18 11 76 66 75 82 82 86 85 86 89 91 93 93 92 91 87 89 89 87 84 82 82 78 69 65 63 62 60 58 55 56 52 48 51 47 48 49 47
68 44 31 32 39 36 26 11 65 79 89 83 89 89 92 92 93 97 96 94 91 89 91 88 84 85 86 82 75 69 72 73 72 67 66 66 62 60 52 57 64 63 59
48 58 46 37 35 40 47 42 30 64 84 75 89 90 86 93 95 97 94 92 93 97 92 89 87 86 85 82 79 74 70 80 80 76 73 71 71 69 68 67 67 69 67
42 51 45 45 39 41 47 52 61 49 69 79 74 79 86 91 91 89 88 89 91 87 88 84 85 85 86 84 81 76 76 78 77 74 73 69 64 59 54 54 59 62 51
43 41 40 32 34 36 43 53 63 74 58 64 81 82 85 86 89 86 86 85 85 85 78 81 78 80 86 85 81 76 75 76 80 78 69 62 52 47 43 45 49 47 45
34 35 22 18 18 28 21 32 64 61 72 54 75 81 81 85 83 85 86 85 85 84 84 76 78 72 71 77 75 72 73 72 76 76 74 72 58 48 47 49 51 48 52
35 37 23 12 19 25 18 17 33 58 64 78 71 79 82 84 86 81 86 89 85 87 79 79 67 66 67 60 63 56 50 58 66 68 70 72 70 66 70 73 70 68 65
32 34 32 18 16 18 14 14 26 37 58 68 73 76 79 82 85 86 79 86 84 85 85 74 70 61 57 59 62 59 56 47 45 53 64 68 71 78 77 74 69 69 64
29 39 38 29 22 28 17 6 15 25 34 46 59 66 69 73 79 84 75 77 73 75 72 66 54 63 63 58 57 57 65 53 44 39 47 64 67 66 67 66 59 50 53
Wind_Direction_500mb
185 176 182 179 174 177 181 180 179 188 185 185 176 172 189 199 177 203 233 169 175 193 161 160 167 181 176 166 152 161 123 113 146 129 115 179 164 149 220 186 144 62 115
181 178 186 182 183 179 185 184 183 194 195 188 170 182 181 196 181 193 163 175 198 199 179 125 147 211 138 159 175 179 149 108 185 188 353 207 203 209 135 151 200 97 246
182 178 187 185 186 183 191 188 188 198 200 183 177 187 193 198 191 191 213 200 186 217 172 174 182 177 169 192 184 157 167 175 179 292 15 75 61 140 189 111 214 322 163
187 179 186 189 188 185 193 196 192 199 203 183 190 190 192 190 194 206 206 204 194 204 203 212 191 190 196 199 202 189 204 192 150 236 188 318 78 79 95 197 201 282 199
189 182 186 192 190 188 190 200 200 197 206 190 191 188 193 198 202 208 194 204 196 197 199 229 215 198 178 201 185 195 208 205 234 200 187 178 184 269 308 238 203 123 203
191 188 188 190 191 190 190 198 205 205 207 199 189 197 191 193 199 203 188 194 207 206 197 223 235 212 189 226 214 199 201 192 198 171 192 150 179 253 263 268 139 160 159
189 187 186 188 192 191 191 195 206 210 210 207 197 196 203 190 198 204 196 200 212 210 197 214 229 226 204 213 208 202 187 202 206 199 193 193 198 291 6 127 17 113 181
187 189 189 192 191 194 193 193 203 211 212 211 206 204 205 198 199 198 208 198 209 221 223 211 223 233 208 222 213 231 207 202 212 205 200 206 167 271 290 295 311 309 298
250 192 193 193 194 194 196 196 200 212 215 212 214 208 213 210 201 201 199 212 203 220 226 214 224 239 221 225 237 221 222 228 225 211 208 206 191 206 260 260 277 291 302
237 264 192 194 197 197 199 198 201 210 215 218 216 217 214 217 212 203 206 206 208 202 214 227 237 238 219 221 231 222 242 234 229 216 235 233 220 192 245 242 240 257 272
204 244 266 197 198 198 199 201 201 206 210 216 220 219 221 219 217 215 211 214 203 210 216 209 223 238 226 221 228 224 215 240 243 219 229 251 258 216 205 244 258 250 251
194 193 245 242 194 197 199 201 202 204 211 214 214 219 222 223 222 217 218 214 215 207 216 220 220 227 230 227 227 231 213 233 235 242 218 225 247 247 226 219 226 236 249
181 180 195 226 190 193 198 200 203 205 207 207 210 211 215 221 225 223 218 221 219 218 217 225 226 232 236 231 232 234 228 213 237 241 244 243 244 244 248 244 246 253 266
176 181 193 217 186 187 194 198 202 203 205 209 209 210 214 216 222 225 224 215 223 223 225 228 235 235 237 236 234 236 238 231 225 234 240 242 247 253 256 257 253 254 256
248 237 235 193 184 182 191 196 200 202 204 207 211 214 213 213 216 219 227 223 220 228 229 233 234 237 237 237 236 236 237 241 241 234 239 246 248 251 254 261 266 269 277
222 329 349 227 178 208 191 196 199 202 203 208 211 212 212 215 214 217 218 226 224 226 231 234 235 236 237 239 235 239 239 237 244 247 241 242 249 258 260 256 257 260 257
23 8 349 32 185 177 212 195 200 203 205 208 210 210 211 214 218 216 218 218 225 225 230 233 235 236 237 238 233 236 243 244 244 250 253 253 252 253 260 266 269 271 272
347 349 336 334 354 138 227 221 206 205 207 211 211 211 211 215 218 218 217 220 219 224 229 235 235 236 238 240 238 233 238 245 249 251 253 254 258 246 247 262 269 273 276
340 329 325 320 310 285 256 248 206 213 212 213 216 214 215 214 218 221 222 219 218 223 227 235 237 236 238 241 243 240 235 239 245 249 250 252 257 264 258 251 252 257 260
315 316 313 301 290 278 260 262 239 215 215 218 217 217 218 216 219 223 225 223 221 226 230 234 237 239 242 244 247 246 241 241 244 250 256 257 256 258 261 265 269 269 272
308 303 303 295 279 277 266 255 238 231 230 227 221 216 215 220 216 221 223 224 222 223 226 232 236 240 243 246 249 248 244 244 247 251 257 262 264 264 264 265 266 272 284
320 318 305 300 316 298 264 252 244 224 224 229 219 217 217 217 214 217 219 222 221 221 222 229 230 236 244 248 248 248 246 247 246 248 256 265 268 274 277 273 275 279 280
334 329 330 292 268 271 274 258 249 249 231 231 225 216 214 213 213 214 217 218 220 222 224 223 231 227 236 245 250 250 249 247 246 248 248 242 242 252 258 261 264 264 266
354 352 345 305 309 301 288 247 225 228 235 224 226 217 210 210 211 214 217 218 219 221 218 220 222 232 226 231 245 248 250 250 246 246 246 247 246 248 251 255 259 264 270
0 351 6 17 4 355 341 250 225 213 222 215 215 205 207 209 212 214 215 217 218 220 219 216 221 219 226 233 227 242 245 251 253 250 246 245 242 243 247 252 259 266 272
360 360 359 7 360 4 14 248 222 196 186 197 196 199 203 206 209 212 213 212 219 216 221 218 217 214 220 225 228 230 240 246 246 242 249 249 249 252 253 256 260 260 264
Wind_Speed_850mb
62 66 63 61 61 61 56 53 49 49 47 41 38 34 29 25 26 31 20 13 6 8 15 15 18 15 17 17 14 11 14 11 18 13 12 6 14 11 8 7 7 9 6
72 71 68 66 63 64 60 63 56 52 50 38 40 34 25 26 35 27 17 11 10 6 11 13 14 7 13 19 9 21 18 9 13 6 11 7 8 18 10 10 2 8 5
79 77 75 73 69 69 65 68 65 55 53 46 46 39 36 30 19 36 25 16 17 10 17 12 17 20 13 10 18 22 5 6 5 5 9 9 7 12 7 4 11 4 8
78 78 76 74 75 75 71 65 71 61 59 53 48 43 37 31 36 34 23 18 21 14 12 10 20 19 20 16 8 15 15 16 13 5 2 7 2 3 5 10 13 11 9
81 83 85 83 79 76 78 71 71 70 61 66 52 51 44 42 34 30 31 36 24 22 20 17 13 18 15 12 17 16 17 9 8 10 8 3 1 2 7 2 18 6 4
82 87 86 83 78 76 79 74 74 77 74 70 62 58 58 43 31 31 37 36 23 26 27 25 15 14 20 19 19 17 22 22 18 7 22 8 12 10 11 5 11 11 7
80 84 87 86 86 84 84 83 81 77 80 76 75 67 61 55 49 39 35 29 35 25 28 33 25 17 17 19 16 14 22 29 25 19 20 9 8 9 8 3 12 2 7
79 81 91 93 96 92 93 90 90 84 82 84 80 78 70 64 58 38 47 33 32 42 33 35 24 20 20 19 17 15 19 16 25 31 25 12 6 1 4 6 10 11 11
17 79 87 91 92 94 96 97 95 90 85 88 87 86 83 71 68 56 46 48 44 28 34 34 25 26 26 19 20 15 15 22 22 19 32 25 19 12 11 13 14 16 24
73 83 81 88 89 96 91 92 89 94 89 83 90 88 89 84 74 66 56 51 49 43 31 35 35 29 32 30 29 19 18 22 17 18 18 18 27 14 15 22 19 18 21
58 69 47 80 89 87 89 91 92 87 91 89 86 92 90 88 83 74 71 60 56 52 56 36 38 38 34 38 37 30 32 32 24 29 22 28 20 30 21 20 19 21 23
83 66 71 76 87 88 90 91 93 93 92 92 86 89 90 88 88 88 80 74 67 60 57 59 43 43 42 40 43 40 42 31 36 27 40 31 29 26 34 32 30 23 26
101 88 88 93 97 91 90 90 93 95 87 86 87 85 88 88 86 89 91 82 80 74 71 64 61 60 50 43 43 43 38 44 40 34 31 34 37 37 37 27 30 33 28
92 79 88 74 98 99 95 90 89 88 88 85 88 91 93 94 93 87 85 88 82 84 79 73 67 61 56 48 45 47 46 41 51 48 45 46 45 43 42 40 40 43 43
30 52 51 47 87 91 95 92 84 86 87 88 89 92 93 92 86 89 88 82 97 89 82 76 71 67 62 57 54 51 52 48 47 49 52 51 50 50 49 48 44 38 36
7 17 15 54 59 52 87 89 90 85 87 88 92 84 85 85 89 88 86 86 87 91 88 83 76 74 71 64 53 50 52 55 53 50 52 54 49 47 45 47 53 52 51
18 20 23 23 28 54 33 84 87 86 84 90 86 86 85 91 92 89 88 87 88 88 89 84 80 80 78 71 58 55 55 53 55 55 53 51 51 49 47 44 42 44 45
43 28 28 34 18 11 76 66 75 82 82 86 85 86 89 91 93 93 92 91 87 89 89 87 84 82 82 78 69 65 63 62 60 58 55 56 52 48 51 47 48 49 47
68 44 31 32 39 36 26 11 65 79 89 83 89 89 92 92 93 97 96 94 91 89 91 88 84 85 86 82 75 69 72 73 72 67 66 66 62 60 52 57 64 63 59
48 58 46 37 35 40 47 42 30 64 84 75 89 90 86 93 95 97 94 92 93 97 92 89 87 86 85 82 79 74 70 80 80 76 73 71 71 69 68 67 67 69 67
42 51 45 45 39 41 47 52 61 49 69 79 74 79 86 91 91 89 88 89 91 87 88 84 85 85 86 84 81 76 76 78 77 74 73 69 64 59 54 54 59 62 51
43 41 40 32 34 36 43 53 63 74 58 64 81 82 85 86 89 86 86 85 85 85 78 81 78 80 86 85 81 76 75 76 80 78 69 62 52 47 43 45 49 47 45
34 35 22 18 18 28 21 32 64 61 72 54 75 81 81 85 83 85 86 85 85 84 84 76 78 72 71 77 75 72 73 72 76 76 74 72 58 48 47 49 51 48 52
35 37 23 12 19 25 18 17 33 58 64 78 71 79 82 84 86 81 86 89 85 87 79 79 67 66 67 60 63 56 50 58 66 68 70 72 70 66 70 73 70 68 65
32 34 32 18 16 18 14 14 26 37 58 68 73 76 79 82 85 86 79 86 84 85 85 74 70 61 57 59 62 59 56 47 45 53 64 68 71 78 77 74 69 69 64
29 39 38 29 22 28 17 6 15 25 34 46 59 66 69 73 79 84 75 77 73 75 72 66 54 63 63 58 57 57 65 53 44 39 47 64 67 66 67 66 59 50 53
Wind_Direction_850mb
185 176 182 179 174 177 181 180 179 188 185 185 176 172 189 199 177 203 233 169 175 193 161 160 167 181 176 166 152 161 123 113 146 129 115 179 164 149 220 186 144 62 115
181 178 186 182 183 179 185 184 183 194 195 188 170 182 181 196 181 193 163 175 198 199 179 125 147 211 138 159 175 179 149 108 185 188 353 207 203 209 135 151 200 97 246
182 178 187 185 186 183 191 188 188 198 200 183 177 187 193 198 191 191 213 200 186 217 172 174 182 177 169 192 184 157 167 175 179 292 15 75 61 140 189 111 214 322 163
187 179 186 189 188 185 193 196 192 199 203 183 190 190 192 190 194 206 206 204 194 204 203 212 191 190 196 199 202 189 204 192 150 236 188 318 78 79 95 197 201 282 199
189 182 186 192 190 188 190 200 200 197 206 190 191 188 193 198 202 208 194 204 196 197 199 229 215 198 178 201 185 195 208 205 234 200 187 178 184 269 308 238 203 123 203
191 188 188 190 191 190 190 198 205 205 207 199 189 197 191 193 199 203 188 194 207 206 197 223 235 212 189 226 214 199 201 192 198 171 192 150 179 253 263 268 139 160 159
189 187 186 188 192 191 191 195 206 210 210 207 197 196 203 190 198 204 196 200 212 210 197 214 229 226 204 213 208 202 187 202 206 199 193 193 198 291 6 127 17 113 181
187 189 189 192 191 194 193 193 203 211 212 211 206 204 205 198 199 198 208 198 209 221 223 211 223 233 208 222 213 231 207 202 212 205 200 206 167 271 290 295 311 309 298
250 192 193 193 194 194 196 196 200 212 215 212 214 208 213 210 201 201 199 212 203 220 226 214 224 239 221 225 237 221 222 228 225 211 208 206 191 206 260 260 277 291 302
237 264 192 194 197 197 199 198 201 210 215 218 216 217 214 217 212 203 206 206 208 202 214 227 237 238 219 221 231 222 242 234 229 216 235 233 220 192 245 242 240 257 272
204 244 266 197 198 198 199 201 201 206 210 216 220 219 221 219 217 215 211 214 203 210 216 209 223 238 226 221 228 224 215 240 243 219 229 251 258 216 205 244 258 250 251
194 193 245 242 194 197 199 201 202 204 211 214 214 219 222 223 222 217 218 214 215 207 216 220 220 227 230 227 227 231 213 233 235 242 218 225 247 247 226 219 226 236 249
181 180 195 226 190 193 198 200 203 205 207 207 210 211 215 221 225 223 218 221 219 218 217 225 226 232 236 231 232 234 228 213 237 241 244 243 244 244 248 244 246 253 266
176 181 193 217 186 187 194 198 202 203 205 209 209 210 214 216 222 225 224 215 223 223 225 228 235 235 237 236 234 236 238 231 225 234 240 242 247 253 256 257 253 254 256
248 237 235 193 184 182 191 196 200 202 204 207 211 214 213 213 216 219 227 223 220 228 229 233 234 237 237 237 236 236 237 241 241 234 239 246 248 251 254 261 266 269 277
222 329 349 227 178 208 191 196 199 202 203 208 211 212 212 215 214 217 218 226 224 226 231 234 235 236 237 239 235 239 239 237 244 247 241 242 249 258 260 256 257 260 257
23 8 349 32 185 177 212 195 200 203 205 208 210 210 211 214 218 216 218 218 225 225 230 233 235 236 237 238 233 236 243 244 244 250 253 253 252 253 260 266 269 271 272
347 349 336 334 354 138 227 221 206 205 207 211 211 211 211 215 218 218 217 220 219 224 229 235 235 236 238 240 238 233 238 245 249 251 253 254 258 246 247 262 269 273 276
340 329 325 320 310 285 256 248 206 213 212 213 216 214 215 214 218 221 222 219 218 223 227 235 237 236 238 241 243 240 235 239 245 249 250 252 257 264 258 251 252 257 260
315 316 313 301 290 278 260 262 239 215 215 218 217 217 218 216 219 223 225 223 221 226 230 234 237 239 242 244 247 246 241 241 244 250 256 257 256 258 261 265 269 269 272
308 303 303 295 279 277 266 255 238 231 230 227 221 216 215 220 216 221 223 224 222 223 226 232 236 240 243 246 249 248 244 244 247 251 257 262 264 264 264 265 266 272 284
320 318 305 300 316 298 264 252 244 224 224 229 219 217 217 217 214 217 219 222 221 221 222 229 230 236 244 248 248 248 246 247 246 248 256 265 268 274 277 273 275 279 280
334 329 330 292 268 271 274 258 249 249 231 231 225 216 214 213 213 214 217 218 220 222 224 223 231 227 236 245 250 250 249 247 246 248 248 242 242 252 258 261 264 264 266
354 352 345 305 309 301 288 247 225 228 235 224 226 217 210 210 211 214 217 218 219 221 218 220 222 232 226 231 245 248 250 250 246 246 246 247 246 248 251 255 259 264 270
0 351 6 17 4 355 341 250 225 213 222 215 215 205 207 209 212 214 215 217 218 220 219 216 221 219 226 233 227 242 245 251 253 250 246 245 242 243 247 252 259 266 272
360 360 359 7 360 4 14 248 222 196 186 197 196 199 203 206 209 212 213 212 219 216 221 218 217 214 220 225 228 230 240 246 246 242 249 249 249 252 253 256 260 260 264